TRA64HW EHAM-LPPD

Flight info

Callsign TRA64HW
Flight time 4h 8m
Altitude 36000
Route WOODY CIV KOVIN NIDUV KIHVI PON DITAL GODIX DIDAK KURIS TERPO ERIGA AZFIC LOTEE PETEK ERPES LENSI BEKUN OMOBI
Aircraft A21N/M-SDE2E3FGHIRWXY/LB1

Departure

Time 2026-05-08 12:53
Airport Amsterdam Airport Schiphol (EHAM)

Arrival

Time 2026-05-08 17:02
Airport João Paulo II Airport (LPPD)
Time Latitude Longitude Altitude Speed Heading
2026-05-08 12:06 52.30894 4.77238 4 ft 0 kts
2026-05-08 12:36 52.30871 4.77233 4 ft 4 kts 19°
2026-05-08 12:36 52.30850 4.77212 4 ft 4 kts 56°
2026-05-08 12:37 52.30844 4.77182 4 ft 2 kts 95°
2026-05-08 12:39 52.30844 4.77184 4 ft 1 kts 95°
2026-05-08 12:39 52.30843 4.77210 4 ft 4 kts 94°
2026-05-08 12:39 52.30841 4.77271 4 ft 7 kts 92°
2026-05-08 12:39 52.30839 4.77362 4 ft 9 kts 93°
2026-05-08 12:40 52.30810 4.77453 4 ft 11 kts 156°
2026-05-08 12:40 52.30726 4.77460 4 ft 13 kts 182°
2026-05-08 12:40 52.30642 4.77412 4 ft 14 kts 225°
2026-05-08 12:40 52.30585 4.77274 4 ft 15 kts 238°
2026-05-08 12:41 52.30524 4.77119 4 ft 17 kts 236°
2026-05-08 12:41 52.30460 4.76954 4 ft 17 kts 238°
2026-05-08 12:41 52.30395 4.76784 4 ft 18 kts 238°
2026-05-08 12:41 52.30330 4.76611 4 ft 18 kts 238°
2026-05-08 12:42 52.30262 4.76435 4 ft 18 kts 237°
2026-05-08 12:42 52.30193 4.76257 4 ft 19 kts 238°
2026-05-08 12:42 52.30124 4.76076 4 ft 19 kts 238°
2026-05-08 12:42 52.30053 4.75893 4 ft 19 kts 238°
2026-05-08 12:43 52.29982 4.75707 4 ft 19 kts 238°
2026-05-08 12:43 52.29911 4.75518 4 ft 20 kts 237°
2026-05-08 12:43 52.29839 4.75329 4 ft 20 kts 253°
2026-05-08 12:43 52.29875 4.75130 5 ft 20 kts 313°
2026-05-08 12:44 52.29968 4.74965 4 ft 20 kts 310°
2026-05-08 12:44 52.30059 4.74793 5 ft 20 kts 311°
2026-05-08 12:44 52.30151 4.74622 15 ft 20 kts 311°
2026-05-08 12:44 52.30237 4.74464 15 ft 17 kts 311°
2026-05-08 12:45 52.30303 4.74341 11 ft 11 kts 311°
2026-05-08 12:45 52.30345 4.74262 4 ft 9 kts 311°
2026-05-08 12:45 52.30370 4.74168 5 ft 10 kts 270°
2026-05-08 12:45 52.30338 4.74060 4 ft 11 kts 225°
2026-05-08 12:46 52.30284 4.73992 4 ft 9 kts 216°
2026-05-08 12:46 52.30232 4.73930 4 ft 10 kts 217°
2026-05-08 12:46 52.30218 4.73912 4 ft 0 kts 216°
2026-05-08 12:47 52.30211 4.73902 4 ft 5 kts 223°
2026-05-08 12:47 52.30189 4.73830 4 ft 9 kts 267°
2026-05-08 12:48 52.30205 4.73750 3 ft 8 kts 331°
2026-05-08 12:48 52.30241 4.73742 2 ft 0 kts
2026-05-08 12:48 52.30242 4.73742 2 ft 0 kts
2026-05-08 12:48 52.30248 4.73742 2 ft 0 kts
2026-05-08 12:52 52.30328 4.73749 1 ft 41 kts
2026-05-08 12:52 52.30848 4.73798 5 ft 106 kts
2026-05-08 12:53 52.31776 4.73884 4 ft 159 kts
2026-05-08 12:53 52.32945 4.74003 308 ft 170 kts
2026-05-08 12:53 52.33919 4.74090 796 ft 173 kts
2026-05-08 12:53 52.35061 4.74746 1290 ft 180 kts 28°
2026-05-08 12:54 52.36190 4.75773 1723 ft 192 kts 36°
2026-05-08 12:54 52.37099 4.77444 2122 ft 205 kts 63°
2026-05-08 12:54 52.37427 4.79768 2503 ft 220 kts 91°
2026-05-08 12:54 52.37101 4.82323 2841 ft 240 kts 111°
2026-05-08 12:55 52.36085 4.84511 3381 ft 250 kts 145°
2026-05-08 12:55 52.34426 4.85461 3907 ft 260 kts 176°
2026-05-08 12:55 52.32605 4.85373 4602 ft 264 kts 184°
2026-05-08 12:55 52.30763 4.85176 5317 ft 266 kts 183°
2026-05-08 12:56 52.28914 4.85029 6036 ft 267 kts 182°
2026-05-08 12:56 52.27051 4.84923 6744 ft 268 kts 181°
2026-05-08 12:56 52.25176 4.84843 7416 ft 270 kts 181°
2026-05-08 12:56 52.23285 4.84779 8081 ft 274 kts 181°
2026-05-08 12:57 52.21372 4.84725 8746 ft 277 kts 181°
2026-05-08 12:57 52.19440 4.84677 9468 ft 279 kts 181°
2026-05-08 12:57 52.17490 4.84632 10119 ft 283 kts 181°
2026-05-08 12:57 52.15479 4.84589 10512 ft 296 kts 181°
2026-05-08 12:58 52.13362 4.84544 10770 ft 313 kts 181°
2026-05-08 12:58 52.11117 4.84496 11009 ft 331 kts 181°
2026-05-08 12:58 52.08778 4.84446 11429 ft 340 kts 181°
2026-05-08 12:58 52.06399 4.84396 12010 ft 344 kts 181°
2026-05-08 12:59 52.03994 4.84342 12610 ft 347 kts 182°
2026-05-08 12:59 52.01597 4.83835 13160 ft 350 kts 197°
2026-05-08 12:59 51.99340 4.82341 13757 ft 352 kts 206°
2026-05-08 12:59 51.97140 4.80567 14316 ft 354 kts 207°
2026-05-08 13:00 51.94929 4.78778 14862 ft 357 kts 207°
2026-05-08 13:00 51.92696 4.76992 15391 ft 359 kts 206°
2026-05-08 13:00 51.90448 4.75208 15932 ft 361 kts 206°
2026-05-08 13:00 51.88181 4.73424 16456 ft 363 kts 206°
2026-05-08 13:01 51.85897 4.71635 16987 ft 366 kts 206°
2026-05-08 13:01 51.83595 4.69842 17496 ft 368 kts 206°
2026-05-08 13:01 51.81279 4.68041 17986 ft 371 kts 206°
2026-05-08 13:01 51.78950 4.66224 18479 ft 373 kts 206°
2026-05-08 13:02 51.76600 4.64397 18895 ft 375 kts 206°
2026-05-08 13:02 51.74272 4.62597 19306 ft 377 kts 206°
2026-05-08 13:02 51.71896 4.60760 19716 ft 380 kts 206°
2026-05-08 13:02 51.69511 4.58919 20126 ft 381 kts 206°
2026-05-08 13:03 51.67110 4.57065 20532 ft 383 kts 206°
2026-05-08 13:03 51.64698 4.55201 20924 ft 386 kts 206°
2026-05-08 13:03 51.62273 4.53328 21309 ft 388 kts 206°
2026-05-08 13:03 51.59829 4.51439 21695 ft 390 kts 206°
2026-05-08 13:04 51.57375 4.49545 22073 ft 392 kts 206°
2026-05-08 13:04 51.54906 4.47646 22452 ft 395 kts 206°
2026-05-08 13:04 51.52422 4.45740 22833 ft 397 kts 206°
2026-05-08 13:04 51.49924 4.43824 23213 ft 399 kts 206°
2026-05-08 13:05 51.47412 4.41899 23590 ft 401 kts 206°
2026-05-08 13:05 51.44888 4.39969 23915 ft 403 kts 206°
2026-05-08 13:05 51.42346 4.38028 24236 ft 405 kts 206°
2026-05-08 13:05 51.39776 4.36139 24547 ft 407 kts 204°
2026-05-08 13:06 51.37150 4.34403 24858 ft 409 kts 203°
2026-05-08 13:06 51.34510 4.32688 25168 ft 411 kts 202°
2026-05-08 13:06 51.31855 4.30968 25475 ft 413 kts 202°
2026-05-08 13:06 51.29190 4.29240 25771 ft 414 kts 203°
2026-05-08 13:07 51.26513 4.27498 26067 ft 416 kts 203°
2026-05-08 13:07 51.23826 4.25752 26354 ft 418 kts 203°
2026-05-08 13:07 51.21129 4.24000 26638 ft 419 kts 203°
2026-05-08 13:07 51.18460 4.22272 26901 ft 421 kts 202°
2026-05-08 13:08 51.15742 4.20518 27170 ft 423 kts 203°
2026-05-08 13:08 51.13010 4.18752 27439 ft 424 kts 203°
2026-05-08 13:08 51.10270 4.16983 27690 ft 426 kts 202°
2026-05-08 13:08 51.07524 4.15213 27939 ft 427 kts 202°
2026-05-08 13:09 51.04760 4.13433 28179 ft 429 kts 202°
2026-05-08 13:09 51.01990 4.11654 28408 ft 430 kts 202°
2026-05-08 13:09 50.99207 4.09870 28646 ft 432 kts 202°
2026-05-08 13:09 50.96416 4.08079 28885 ft 434 kts 202°
2026-05-08 13:10 50.93616 4.06282 29116 ft 435 kts 202°
2026-05-08 13:10 50.90805 4.04483 29348 ft 437 kts 202°
2026-05-08 13:10 50.87983 4.02681 29555 ft 438 kts 202°
2026-05-08 13:10 50.85152 4.00876 29771 ft 439 kts 202°
2026-05-08 13:11 50.82308 3.99067 29978 ft 441 kts 202°
2026-05-08 13:11 50.79459 3.97255 30169 ft 442 kts 202°
2026-05-08 13:11 50.76607 3.95445 30364 ft 442 kts 202°
2026-05-08 13:11 50.73754 3.93632 30582 ft 442 kts 202°
2026-05-08 13:12 50.70901 3.91824 30792 ft 442 kts 202°
2026-05-08 13:12 50.68045 3.90020 30982 ft 442 kts 202°
2026-05-08 13:12 50.65197 3.88218 31186 ft 441 kts 202°
2026-05-08 13:12 50.62349 3.86418 31382 ft 441 kts 202°
2026-05-08 13:13 50.59499 3.84621 31597 ft 441 kts 203°
2026-05-08 13:13 50.56661 3.82791 31786 ft 441 kts 204°
2026-05-08 13:13 50.53848 3.80878 31977 ft 440 kts 205°
2026-05-08 13:13 50.51040 3.78959 32168 ft 440 kts 205°
2026-05-08 13:14 50.48229 3.77039 32358 ft 440 kts 205°
2026-05-08 13:14 50.45422 3.75130 32543 ft 440 kts 205°
2026-05-08 13:14 50.42614 3.73219 32711 ft 440 kts 205°
2026-05-08 13:14 50.39804 3.71310 32877 ft 440 kts 205°
2026-05-08 13:15 50.37000 3.69405 33034 ft 440 kts 205°
2026-05-08 13:15 50.34191 3.67500 33129 ft 441 kts 205°
2026-05-08 13:15 50.28531 3.63675 33105 ft 443 kts 205°
2026-05-08 13:16 50.23824 3.60505 33089 ft 443 kts 205°
2026-05-08 13:16 50.18161 3.56694 33088 ft 443 kts 205°
2026-05-08 13:17 50.12493 3.52889 33083 ft 443 kts 205°
2026-05-08 13:17 50.06824 3.49095 33081 ft 443 kts 205°
2026-05-08 13:18 50.01158 3.45308 33077 ft 443 kts 205°
2026-05-08 13:18 49.95491 3.41533 33081 ft 443 kts 205°
2026-05-08 13:19 49.89821 3.37763 33067 ft 443 kts 205°
2026-05-08 13:19 49.84150 3.34005 33072 ft 443 kts 205°
2026-05-08 13:20 49.78477 3.30259 33076 ft 443 kts 205°
2026-05-08 13:20 49.72803 3.26515 33068 ft 443 kts 205°
2026-05-08 13:21 49.67120 3.22780 33062 ft 444 kts 206°
2026-05-08 13:21 49.61441 3.19057 33066 ft 444 kts 205°
2026-05-08 13:22 49.55758 3.15363 33064 ft 444 kts 205°
2026-05-08 13:22 49.50240 3.11170 33060 ft 442 kts 218°
2026-05-08 13:23 49.47929 3.08090 33051 ft 438 kts 231°
2026-05-08 13:23 49.46122 3.04381 33066 ft 432 kts 242°
2026-05-08 13:23 49.43212 2.96346 33065 ft 430 kts 244°
2026-05-08 13:24 49.40286 2.88317 33063 ft 431 kts 243°
2026-05-08 13:24 49.37315 2.80336 33060 ft 431 kts 243°
2026-05-08 13:25 49.34341 2.72357 33061 ft 430 kts 244°
2026-05-08 13:25 49.31502 2.64283 33046 ft 430 kts 246°
2026-05-08 13:26 49.28670 2.56226 33061 ft 429 kts 246°
2026-05-08 13:26 49.25836 2.48200 33054 ft 427 kts 246°
2026-05-08 13:27 49.23004 2.40210 33063 ft 427 kts 246°
2026-05-08 13:27 49.20164 2.32228 33055 ft 427 kts 246°
2026-05-08 13:28 49.17272 2.24286 33051 ft 428 kts 245°
2026-05-08 13:28 49.14333 2.16366 33042 ft 429 kts 246°
2026-05-08 13:29 49.11410 2.08493 33053 ft 429 kts 246°
2026-05-08 13:29 49.09924 2.04470 33188 ft 429 kts 247°
2026-05-08 13:29 49.08622 2.00400 33367 ft 426 kts 251°
2026-05-08 13:30 49.07393 1.96301 33543 ft 424 kts 251°
2026-05-08 13:30 49.06185 1.92259 33695 ft 423 kts 251°
2026-05-08 13:30 49.04999 1.88292 33912 ft 421 kts 251°
2026-05-08 13:30 49.03781 1.84239 34083 ft 420 kts 250°
2026-05-08 13:31 49.02561 1.80201 34201 ft 419 kts 250°
2026-05-08 13:31 49.01340 1.76166 34286 ft 420 kts 250°
2026-05-08 13:31 48.98891 1.68085 34413 ft 421 kts 250°
2026-05-08 13:32 48.96431 1.59997 34593 ft 421 kts 250°
2026-05-08 13:32 48.93967 1.51919 34758 ft 421 kts 250°
2026-05-08 13:33 48.91496 1.43844 34914 ft 421 kts 249°
2026-05-08 13:33 48.89016 1.35767 35035 ft 422 kts 249°
2026-05-08 13:34 48.86526 1.27694 35050 ft 422 kts 249°
2026-05-08 13:34 48.84029 1.19625 35049 ft 422 kts 249°
2026-05-08 13:35 48.81529 1.11565 35046 ft 422 kts 249°
2026-05-08 13:35 48.79024 1.03519 35044 ft 422 kts 249°
2026-05-08 13:36 48.76510 0.95473 35041 ft 422 kts 249°
2026-05-08 13:36 48.73895 0.87511 35037 ft 424 kts 244°
2026-05-08 13:37 48.70815 0.79860 35035 ft 424 kts 242°
2026-05-08 13:37 48.67724 0.72257 35035 ft 426 kts 242°
2026-05-08 13:38 48.64630 0.64646 35019 ft 424 kts 242°
2026-05-08 13:38 48.61529 0.57039 35030 ft 423 kts 242°
2026-05-08 13:39 48.58431 0.49458 35030 ft 426 kts 242°
2026-05-08 13:39 48.55333 0.41893 35017 ft 424 kts 242°
2026-05-08 13:40 48.52227 0.34334 35022 ft 421 kts 242°
2026-05-08 13:40 48.49118 0.26790 35023 ft 424 kts 241°
2026-05-08 13:41 48.46008 0.19268 35022 ft 424 kts 241°
2026-05-08 13:41 48.42891 0.11744 35003 ft 422 kts 241°
2026-05-08 13:42 48.39770 0.04227 35011 ft 425 kts 241°
2026-05-08 13:42 48.36645 -0.03253 35005 ft 423 kts 239°
2026-05-08 13:43 48.33211 -0.10412 35006 ft 423 kts 236°
2026-05-08 13:43 48.29681 -0.17517 35012 ft 426 kts 236°
2026-05-08 13:44 48.26155 -0.24620 35007 ft 425 kts 236°
2026-05-08 13:44 48.22576 -0.31679 35010 ft 423 kts 235°
2026-05-08 13:45 48.18976 -0.38707 35003 ft 427 kts 235°
2026-05-08 13:45 48.15378 -0.45734 34995 ft 425 kts 235°
2026-05-08 13:46 48.11776 -0.52750 34996 ft 424 kts 235°
2026-05-08 13:46 48.08165 -0.59763 34990 ft 425 kts 235°
2026-05-08 13:47 48.04555 -0.66756 35001 ft 426 kts 235°
2026-05-08 13:47 48.00937 -0.73749 34977 ft 425 kts 234°
2026-05-08 13:48 47.97311 -0.80732 34999 ft 424 kts 234°
2026-05-08 13:48 47.93686 -0.87706 34996 ft 427 kts 233°
2026-05-08 13:49 47.90057 -0.94673 34987 ft 426 kts 233°
2026-05-08 13:49 47.86417 -1.01643 34978 ft 424 kts 233°
2026-05-08 13:50 47.82778 -1.08610 34978 ft 426 kts 233°
2026-05-08 13:50 47.79140 -1.15544 34964 ft 427 kts 233°
2026-05-08 13:51 47.75496 -1.22467 34964 ft 424 kts 233°
2026-05-08 13:51 47.71849 -1.29376 34970 ft 422 kts 232°
2026-05-08 13:52 47.68210 -1.36251 34960 ft 424 kts 232°
2026-05-08 13:52 47.64573 -1.43103 34959 ft 424 kts 232°
2026-05-08 13:53 47.60928 -1.49956 34953 ft 422 kts 232°
2026-05-08 13:53 47.57067 -1.56569 34948 ft 424 kts 229°
2026-05-08 13:54 47.53133 -1.63037 34943 ft 424 kts 229°
2026-05-08 13:54 47.49191 -1.69506 34943 ft 423 kts 228°
2026-05-08 13:55 47.45241 -1.75987 34937 ft 424 kts 228°
2026-05-08 13:56 47.39316 -1.85671 34936 ft 423 kts 228°
2026-05-08 13:56 47.35301 -1.92034 34938 ft 426 kts 223°
2026-05-08 13:57 47.30461 -1.96980 34932 ft 424 kts 212°
2026-05-08 13:57 47.25380 -2.01441 34937 ft 424 kts 212°
2026-05-08 13:58 47.20318 -2.05932 34934 ft 426 kts 212°
2026-05-08 13:58 47.15278 -2.10425 34931 ft 424 kts 211°
2026-05-08 13:59 47.10234 -2.14913 34931 ft 422 kts 211°
2026-05-08 13:59 47.06040 -2.18631 34929 ft 425 kts 211°
2026-05-08 14:00 47.01000 -2.23090 34933 ft 423 kts 211°
2026-05-08 14:00 46.95950 -2.27552 34933 ft 422 kts 211°
2026-05-08 14:01 46.90902 -2.32005 34939 ft 424 kts 211°
2026-05-08 14:01 46.86160 -2.37048 34930 ft 424 kts 225°
2026-05-08 14:01 46.84320 -2.40426 34937 ft 427 kts 236°
2026-05-08 14:02 46.82806 -2.44158 34938 ft 426 kts 239°
2026-05-08 14:02 46.79898 -2.51724 34931 ft 429 kts 238°
2026-05-08 14:03 46.76944 -2.59261 34937 ft 428 kts 238°
2026-05-08 14:03 46.73959 -2.66792 34935 ft 427 kts 238°
2026-05-08 14:04 46.70971 -2.74301 34935 ft 429 kts 238°
2026-05-08 14:04 46.67982 -2.81794 34937 ft 429 kts 238°
2026-05-08 14:05 46.64977 -2.89305 34936 ft 431 kts 237°
2026-05-08 14:05 46.61963 -2.96828 34937 ft 430 kts 237°
2026-05-08 14:06 46.58943 -3.04340 34928 ft 429 kts 237°
2026-05-08 14:06 46.55581 -3.11480 34933 ft 429 kts 226°
2026-05-08 14:07 46.51472 -3.17697 34916 ft 427 kts 224°
2026-05-08 14:07 46.47320 -3.23885 34933 ft 427 kts 224°
2026-05-08 14:08 46.43181 -3.30094 34918 ft 427 kts 224°
2026-05-08 14:08 46.39038 -3.36303 34919 ft 428 kts 224°
2026-05-08 14:09 46.34895 -3.42497 34912 ft 430 kts 224°
2026-05-08 14:09 46.30749 -3.48681 34913 ft 428 kts 223°
2026-05-08 14:10 46.26585 -3.54877 34902 ft 428 kts 223°
2026-05-08 14:10 46.22421 -3.61061 34915 ft 429 kts 223°
2026-05-08 14:11 46.18254 -3.67234 34901 ft 431 kts 223°
2026-05-08 14:11 46.14081 -3.73401 34897 ft 430 kts 223°
2026-05-08 14:12 46.09927 -3.79524 34896 ft 429 kts 223°
2026-05-08 14:12 46.05733 -3.85691 34891 ft 431 kts 223°
2026-05-08 14:13 46.01544 -3.91841 34887 ft 432 kts 223°
2026-05-08 14:13 45.97347 -3.97985 34892 ft 431 kts 222°
2026-05-08 14:14 45.93134 -4.04140 34880 ft 430 kts 222°
2026-05-08 14:14 45.88921 -4.10283 34881 ft 432 kts 222°
2026-05-08 14:15 45.84678 -4.16452 34880 ft 434 kts 222°
2026-05-08 14:15 45.80440 -4.22604 34879 ft 435 kts 222°
2026-05-08 14:16 45.76196 -4.28748 34874 ft 433 kts 222°
2026-05-08 14:16 45.71939 -4.34893 34877 ft 434 kts 222°
2026-05-08 14:17 45.67686 -4.41014 34874 ft 435 kts 221°
2026-05-08 14:17 45.63408 -4.47169 34874 ft 435 kts 221°
2026-05-08 14:18 45.59130 -4.53300 34872 ft 437 kts 221°
2026-05-08 14:18 45.54852 -4.59420 34870 ft 436 kts 221°
2026-05-08 14:19 45.50566 -4.65543 34870 ft 434 kts 221°
2026-05-08 14:19 45.46278 -4.71649 34871 ft 437 kts 221°
2026-05-08 14:20 45.41963 -4.77781 34867 ft 437 kts 221°
2026-05-08 14:20 45.37643 -4.83905 34869 ft 439 kts 221°
2026-05-08 14:21 45.33329 -4.90013 34867 ft 439 kts 221°
2026-05-08 14:21 45.29005 -4.96119 34866 ft 438 kts 221°
2026-05-08 14:22 45.24673 -5.02215 34888 ft 439 kts 220°
2026-05-08 14:22 45.20329 -5.08319 34871 ft 438 kts 220°
2026-05-08 14:23 45.15976 -5.14416 34865 ft 440 kts 220°
2026-05-08 14:23 45.11626 -5.20493 34865 ft 441 kts 220°
2026-05-08 14:24 45.07270 -5.26569 34865 ft 439 kts 220°
2026-05-08 14:24 45.02903 -5.32648 34871 ft 439 kts 220°
2026-05-08 14:25 44.98544 -5.38710 34881 ft 440 kts 220°
2026-05-08 14:25 44.94174 -5.44771 34873 ft 441 kts 220°
2026-05-08 14:26 44.89807 -5.50819 34872 ft 441 kts 220°
2026-05-08 14:26 44.85433 -5.56863 34876 ft 439 kts 219°
2026-05-08 14:27 44.81047 -5.62903 34870 ft 440 kts 219°
2026-05-08 14:27 44.76658 -5.68930 34864 ft 443 kts 219°
2026-05-08 14:28 44.72266 -5.74952 34870 ft 442 kts 219°
2026-05-08 14:28 44.67880 -5.80986 34865 ft 442 kts 221°
2026-05-08 14:28 44.65933 -5.84368 34865 ft 451 kts 232°
2026-05-08 14:29 44.64471 -5.88306 34868 ft 457 kts 242°
2026-05-08 14:29 44.62144 -5.96605 34869 ft 458 kts 244°
2026-05-08 14:30 44.59827 -6.04852 34866 ft 456 kts 243°
2026-05-08 14:30 44.57451 -6.13131 34878 ft 456 kts 243°
2026-05-08 14:31 44.55063 -6.21391 34869 ft 456 kts 243°
2026-05-08 14:31 44.52669 -6.29652 34870 ft 459 kts 243°
2026-05-08 14:32 44.49079 -6.42033 34867 ft 456 kts 243°
2026-05-08 14:32 44.46670 -6.50263 34882 ft 456 kts 243°
2026-05-08 14:33 44.44255 -6.58489 34870 ft 457 kts 243°
2026-05-08 14:33 44.41857 -6.66710 34882 ft 457 kts 243°
2026-05-08 14:34 44.39460 -6.74879 34867 ft 455 kts 243°
2026-05-08 14:34 44.37048 -6.83041 34872 ft 453 kts 243°
2026-05-08 14:35 44.34627 -6.91199 34873 ft 453 kts 243°
2026-05-08 14:35 44.32204 -6.99351 34870 ft 454 kts 243°
2026-05-08 14:36 44.29772 -7.07501 34864 ft 455 kts 243°
2026-05-08 14:36 44.27339 -7.15634 34861 ft 456 kts 243°
2026-05-08 14:37 44.24897 -7.23767 34893 ft 455 kts 242°
2026-05-08 14:37 44.22449 -7.31890 34873 ft 456 kts 242°
2026-05-08 14:38 44.19995 -7.40011 34869 ft 455 kts 242°
2026-05-08 14:38 44.17532 -7.48131 34884 ft 453 kts 242°
2026-05-08 14:39 44.15079 -7.56197 34874 ft 452 kts 242°
2026-05-08 14:39 44.12621 -7.64251 34878 ft 450 kts 243°
2026-05-08 14:40 44.10163 -7.72281 34871 ft 450 kts 243°
2026-05-08 14:40 44.07699 -7.80309 34871 ft 451 kts 242°
2026-05-08 14:41 44.05230 -7.88320 34870 ft 452 kts 242°
2026-05-08 14:41 44.02758 -7.96328 34874 ft 452 kts 242°
2026-05-08 14:42 44.00697 -8.02978 34867 ft 451 kts 242°
2026-05-08 14:42 43.98214 -8.10973 34867 ft 451 kts 242°
2026-05-08 14:43 43.95725 -8.18960 34868 ft 450 kts 242°
2026-05-08 14:43 43.93229 -8.26943 34869 ft 450 kts 242°
2026-05-08 14:44 43.90735 -8.34900 34886 ft 448 kts 243°
2026-05-08 14:44 43.88249 -8.42808 34870 ft 448 kts 242°
2026-05-08 14:45 43.85753 -8.50715 34865 ft 448 kts 242°
2026-05-08 14:45 43.83253 -8.58616 34866 ft 449 kts 242°
2026-05-08 14:46 43.80741 -8.66500 34857 ft 449 kts 242°
2026-05-08 14:46 43.78235 -8.74374 34870 ft 446 kts 242°
2026-05-08 14:47 43.75730 -8.82218 34861 ft 446 kts 243°
2026-05-08 14:47 43.73222 -8.90052 34860 ft 446 kts 242°
2026-05-08 14:48 43.70705 -8.97880 34860 ft 447 kts 242°
2026-05-08 14:48 43.68187 -9.05704 34858 ft 447 kts 242°
2026-05-08 14:49 43.65668 -9.13506 34870 ft 442 kts 243°
2026-05-08 14:49 43.63158 -9.21247 34862 ft 442 kts 243°
2026-05-08 14:50 43.60642 -9.28990 34853 ft 443 kts 243°
2026-05-08 14:50 43.58126 -9.36723 34853 ft 443 kts 243°
2026-05-08 14:51 43.55600 -9.44442 34854 ft 443 kts 243°
2026-05-08 14:51 43.53078 -9.52148 34863 ft 439 kts 243°
2026-05-08 14:52 43.49303 -9.63605 34848 ft 441 kts 243°
2026-05-08 14:53 43.46753 -9.71325 34846 ft 440 kts 243°
2026-05-08 14:53 43.44233 -9.78933 34846 ft 440 kts 243°
2026-05-08 14:54 43.41698 -9.86589 34857 ft 437 kts 243°
2026-05-08 14:54 43.39169 -9.94197 34850 ft 436 kts 243°
2026-05-08 14:55 43.36643 -10.01767 34838 ft 436 kts 243°
2026-05-08 14:55 43.34109 -10.09327 34846 ft 436 kts 243°
2026-05-08 14:56 43.31572 -10.16884 34839 ft 437 kts 243°
2026-05-08 14:56 43.29037 -10.24415 34848 ft 433 kts 242°
2026-05-08 14:57 43.26498 -10.31928 34835 ft 433 kts 242°
2026-05-08 14:57 43.23957 -10.39436 34834 ft 433 kts 242°
2026-05-08 14:58 43.21411 -10.46939 34835 ft 434 kts 242°
2026-05-08 14:58 43.18858 -10.54431 34829 ft 434 kts 242°
2026-05-08 14:59 43.16305 -10.61911 34836 ft 433 kts 242°
2026-05-08 14:59 43.12466 -10.73119 34826 ft 434 kts 242°
2026-05-08 15:00 43.09902 -10.80580 34827 ft 432 kts 242°
2026-05-08 15:00 43.07330 -10.88037 34824 ft 431 kts 242°
2026-05-08 15:01 43.04756 -10.95486 34834 ft 433 kts 242°
2026-05-08 15:01 43.02165 -11.02955 34817 ft 434 kts 242°
2026-05-08 15:02 42.99574 -11.10418 34816 ft 435 kts 242°
2026-05-08 15:02 42.96975 -11.17871 34815 ft 437 kts 242°
2026-05-08 15:03 42.94373 -11.25321 34810 ft 435 kts 242°
2026-05-08 15:03 42.91765 -11.32766 34819 ft 434 kts 242°
2026-05-08 15:04 42.89139 -11.40237 34808 ft 437 kts 242°
2026-05-08 15:04 42.86509 -11.47698 34809 ft 438 kts 242°
2026-05-08 15:05 42.83877 -11.55153 34809 ft 438 kts 241°
2026-05-08 15:05 42.81253 -11.62564 34802 ft 437 kts 241°
2026-05-08 15:06 42.78585 -11.70077 34802 ft 436 kts 241°
2026-05-08 15:06 42.75946 -11.77481 34799 ft 437 kts 241°
2026-05-08 15:07 42.73274 -11.84971 34796 ft 438 kts 241°
2026-05-08 15:07 42.70614 -11.92402 34792 ft 439 kts 241°
2026-05-08 15:08 42.68295 -11.98489 34788 ft 434 kts 234°
2026-05-08 15:08 42.65715 -12.02671 34792 ft 432 kts 221°
2026-05-08 15:08 42.63471 -12.05369 34802 ft 429 kts 219°
2026-05-08 15:09 42.58964 -12.10593 34787 ft 429 kts 219°
2026-05-08 15:09 42.54466 -12.15865 34785 ft 427 kts 220°
2026-05-08 15:10 42.49980 -12.21140 34772 ft 427 kts 220°
2026-05-08 15:10 42.45493 -12.26409 34773 ft 426 kts 220°
2026-05-08 15:11 42.41005 -12.31668 34772 ft 426 kts 220°
2026-05-08 15:11 42.36512 -12.36926 34763 ft 426 kts 220°
2026-05-08 15:12 42.32019 -12.42173 34772 ft 425 kts 219°
2026-05-08 15:12 42.27556 -12.47372 34770 ft 425 kts 219°
2026-05-08 15:13 42.23091 -12.52563 34760 ft 425 kts 219°
2026-05-08 15:13 42.18626 -12.57751 34755 ft 425 kts 219°
2026-05-08 15:14 42.14151 -12.62930 34754 ft 424 kts 219°
2026-05-08 15:14 42.09677 -12.68103 34746 ft 423 kts 219°
2026-05-08 15:15 42.05192 -12.73277 34743 ft 423 kts 219°
2026-05-08 15:15 42.00712 -12.78428 34752 ft 424 kts 219°
2026-05-08 15:16 41.96230 -12.83568 34744 ft 424 kts 219°
2026-05-08 15:16 41.91746 -12.88707 34741 ft 425 kts 219°
2026-05-08 15:17 41.87260 -12.93844 34725 ft 425 kts 219°
2026-05-08 15:17 41.82762 -12.98985 34737 ft 424 kts 219°
2026-05-08 15:18 41.78268 -13.04119 34726 ft 423 kts 219°
2026-05-08 15:18 41.73771 -13.09245 34721 ft 423 kts 219°
2026-05-08 15:19 41.69265 -13.14364 34729 ft 425 kts 218°
2026-05-08 15:19 41.64741 -13.19498 34714 ft 425 kts 218°
2026-05-08 15:20 41.60202 -13.24638 34709 ft 430 kts 218°
2026-05-08 15:20 41.55659 -13.29769 34702 ft 429 kts 218°
2026-05-08 15:21 41.51111 -13.34894 34702 ft 428 kts 218°
2026-05-08 15:21 41.46562 -13.40020 34689 ft 427 kts 218°
2026-05-08 15:22 41.42002 -13.45145 34686 ft 427 kts 218°
2026-05-08 15:22 41.37456 -13.50246 34684 ft 428 kts 218°
2026-05-08 15:23 41.32897 -13.55346 34678 ft 427 kts 218°
2026-05-08 15:23 41.28334 -13.60444 34671 ft 429 kts 218°
2026-05-08 15:24 41.23771 -13.65526 34663 ft 429 kts 218°
2026-05-08 15:24 41.19203 -13.70610 34655 ft 428 kts 218°
2026-05-08 15:25 41.15402 -13.74830 34655 ft 428 kts 218°
2026-05-08 15:25 41.10837 -13.79899 34641 ft 428 kts 218°
2026-05-08 15:26 41.06267 -13.84957 34644 ft 429 kts 218°
2026-05-08 15:26 41.01686 -13.90021 34646 ft 429 kts 217°
2026-05-08 15:27 40.97091 -13.95086 34632 ft 429 kts 218°
2026-05-08 15:27 40.92500 -14.00143 34627 ft 430 kts 218°
2026-05-08 15:28 40.87905 -14.05187 34619 ft 431 kts 218°
2026-05-08 15:28 40.83292 -14.10248 34622 ft 431 kts 218°
2026-05-08 15:29 40.78677 -14.15298 34611 ft 430 kts 218°
2026-05-08 15:29 40.74060 -14.20338 34610 ft 431 kts 218°
2026-05-08 15:30 40.69436 -14.25383 34602 ft 434 kts 218°
2026-05-08 15:30 40.64779 -14.30456 34601 ft 436 kts 218°
2026-05-08 15:31 40.60106 -14.35534 34599 ft 436 kts 218°
2026-05-08 15:31 40.55427 -14.40608 34592 ft 435 kts 218°
2026-05-08 15:32 40.50781 -14.45637 34589 ft 436 kts 218°
2026-05-08 15:32 40.46095 -14.50687 34587 ft 436 kts 218°
2026-05-08 15:33 40.41410 -14.55731 34588 ft 435 kts 218°
2026-05-08 15:33 40.36710 -14.60787 34589 ft 438 kts 218°
2026-05-08 15:34 40.32001 -14.65846 34585 ft 439 kts 218°
2026-05-08 15:34 40.27287 -14.70903 34584 ft 439 kts 218°
2026-05-08 15:35 40.22568 -14.75951 34581 ft 439 kts 218°
2026-05-08 15:35 40.17851 -14.80992 34581 ft 439 kts 218°
2026-05-08 15:36 40.13124 -14.86038 34584 ft 438 kts 218°
2026-05-08 15:36 40.08392 -14.91079 34584 ft 439 kts 218°
2026-05-08 15:37 40.03668 -14.96127 34578 ft 441 kts 220°
2026-05-08 15:37 40.01526 -14.99007 34580 ft 444 kts 231°
2026-05-08 15:37 39.99864 -15.02406 34578 ft 445 kts 243°
2026-05-08 15:38 39.98084 -15.10154 34583 ft 448 kts 256°
2026-05-08 15:38 39.96761 -15.18096 34580 ft 448 kts 256°
2026-05-08 15:39 39.95375 -15.26008 34578 ft 448 kts 255°
2026-05-08 15:39 39.93960 -15.33914 34578 ft 448 kts 255°
2026-05-08 15:40 39.92539 -15.41814 34578 ft 448 kts 255°
2026-05-08 15:40 39.91116 -15.49720 34578 ft 449 kts 255°
2026-05-08 15:41 39.89685 -15.57625 34574 ft 449 kts 255°
2026-05-08 15:41 39.88248 -15.65517 34580 ft 448 kts 255°
2026-05-08 15:42 39.86810 -15.73411 34577 ft 448 kts 255°
2026-05-08 15:42 39.85369 -15.81283 34575 ft 448 kts 255°
2026-05-08 15:43 39.83922 -15.89159 34574 ft 447 kts 255°
2026-05-08 15:43 39.82469 -15.97036 34576 ft 448 kts 255°
2026-05-08 15:44 39.81011 -16.04905 34574 ft 447 kts 256°
2026-05-08 15:44 39.79551 -16.12779 34569 ft 447 kts 256°
2026-05-08 15:45 39.78082 -16.20645 34573 ft 450 kts 255°
2026-05-08 15:45 39.76606 -16.28504 34571 ft 447 kts 256°
2026-05-08 15:46 39.75121 -16.36379 34571 ft 448 kts 256°
2026-05-08 15:46 39.73634 -16.44247 34569 ft 449 kts 256°
2026-05-08 15:47 39.72137 -16.52120 34573 ft 447 kts 256°
2026-05-08 15:47 39.70634 -16.59988 34575 ft 449 kts 256°
2026-05-08 15:48 39.68371 -16.71797 34574 ft 450 kts 257°
2026-05-08 15:49 39.66858 -16.79646 34575 ft 448 kts 257°
2026-05-08 15:49 39.65340 -16.87492 34575 ft 448 kts 257°
2026-05-08 15:50 39.63819 -16.95329 34576 ft 449 kts 257°
2026-05-08 15:50 39.62290 -17.03168 34577 ft 447 kts 256°
2026-05-08 15:51 39.60753 -17.11008 34574 ft 450 kts 257°
2026-05-08 15:51 39.59215 -17.18849 34577 ft 449 kts 257°
2026-05-08 15:52 39.57669 -17.26680 34582 ft 449 kts 257°
2026-05-08 15:52 39.56118 -17.34516 34587 ft 449 kts 257°
2026-05-08 15:53 39.54561 -17.42349 34583 ft 449 kts 257°
2026-05-08 15:53 39.52997 -17.50166 34592 ft 449 kts 257°
2026-05-08 15:54 39.51429 -17.57986 34592 ft 449 kts 257°
2026-05-08 15:54 39.49861 -17.65802 34593 ft 448 kts 257°
2026-05-08 15:55 39.48298 -17.73561 34594 ft 448 kts 257°
2026-05-08 15:55 39.45932 -17.85229 34601 ft 447 kts 258°
2026-05-08 15:56 39.44350 -17.92995 34608 ft 447 kts 258°
2026-05-08 15:56 39.42764 -18.00750 34608 ft 447 kts 257°
2026-05-08 15:57 39.41174 -18.08498 34612 ft 445 kts 257°
2026-05-08 15:57 39.39583 -18.16223 34607 ft 444 kts 258°
2026-05-08 15:58 39.37985 -18.23943 34621 ft 443 kts 258°
2026-05-08 15:58 39.36389 -18.31637 34624 ft 444 kts 258°
2026-05-08 15:59 39.34787 -18.39338 34626 ft 444 kts 258°
2026-05-08 15:59 39.33180 -18.47024 34630 ft 440 kts 259°
2026-05-08 16:00 39.31582 -18.54634 34633 ft 439 kts 259°
2026-05-08 16:00 39.29983 -18.62232 34633 ft 439 kts 259°
2026-05-08 16:01 39.28380 -18.69830 34632 ft 439 kts 259°
2026-05-08 16:01 39.26771 -18.77419 34640 ft 438 kts 259°
2026-05-08 16:02 39.25154 -18.85018 34646 ft 438 kts 259°
2026-05-08 16:02 39.23534 -18.92607 34645 ft 438 kts 259°
2026-05-08 16:03 39.21905 -19.00196 34653 ft 438 kts 258°
2026-05-08 16:03 39.20270 -19.07781 34655 ft 438 kts 259°
2026-05-08 16:04 39.18632 -19.15369 34656 ft 437 kts 259°
2026-05-08 16:04 39.17005 -19.22881 34669 ft 436 kts 259°
2026-05-08 16:05 39.15372 -19.30394 34665 ft 436 kts 259°
2026-05-08 16:05 39.13742 -19.37905 34674 ft 436 kts 259°
2026-05-08 16:06 39.12105 -19.45407 34678 ft 436 kts 259°
2026-05-08 16:06 39.10469 -19.52859 34686 ft 431 kts 259°
2026-05-08 16:07 39.08833 -19.60284 34687 ft 431 kts 259°
2026-05-08 16:07 39.07192 -19.67716 34690 ft 431 kts 259°
2026-05-08 16:08 39.05827 -19.73886 34692 ft 431 kts 259°
2026-05-08 16:08 39.04175 -19.81301 34691 ft 430 kts 259°
2026-05-08 16:09 39.02535 -19.88647 34701 ft 427 kts 259°
2026-05-08 16:09 39.00628 -19.97167 34707 ft 427 kts 259°
2026-05-08 16:10 38.99046 -20.03252 34712 ft 430 kts 255°
2026-05-08 16:10 38.96813 -20.10399 34719 ft 431 kts 254°
2026-05-08 16:11 38.94587 -20.17561 34709 ft 432 kts 254°
2026-05-08 16:11 38.92380 -20.24699 34719 ft 430 kts 254°
2026-05-08 16:12 38.90168 -20.31835 34725 ft 430 kts 254°
2026-05-08 16:12 38.87958 -20.38962 34733 ft 430 kts 254°
2026-05-08 16:13 38.85739 -20.46094 34736 ft 430 kts 254°
2026-05-08 16:13 38.83530 -20.53166 34733 ft 430 kts 254°
2026-05-08 16:14 38.81305 -20.60284 34745 ft 430 kts 254°
2026-05-08 16:14 38.79068 -20.67404 34752 ft 430 kts 254°
2026-05-08 16:15 38.76836 -20.74505 34758 ft 430 kts 254°
2026-05-08 16:15 38.74596 -20.81603 34734 ft 430 kts 254°
2026-05-08 16:16 38.72345 -20.88700 34759 ft 430 kts 254°
2026-05-08 16:16 38.70089 -20.95801 34766 ft 430 kts 254°
2026-05-08 16:17 38.67835 -21.02892 34771 ft 430 kts 254°
2026-05-08 16:17 38.65576 -21.09981 34772 ft 430 kts 254°
2026-05-08 16:18 38.63313 -21.17077 34767 ft 432 kts 254°
2026-05-08 16:18 38.61037 -21.24180 34780 ft 431 kts 254°
2026-05-08 16:19 38.58761 -21.31268 34789 ft 431 kts 254°
2026-05-08 16:19 38.56481 -21.38352 34790 ft 431 kts 254°
2026-05-08 16:20 38.54195 -21.45430 34796 ft 431 kts 254°
2026-05-08 16:20 38.51898 -21.52529 34787 ft 433 kts 254°
2026-05-08 16:21 38.49603 -21.59604 34798 ft 431 kts 254°
2026-05-08 16:21 38.47303 -21.66677 34802 ft 431 kts 254°
2026-05-08 16:22 38.44997 -21.73749 34813 ft 432 kts 254°
2026-05-08 16:22 38.42689 -21.80808 34809 ft 432 kts 254°
2026-05-08 16:23 38.40363 -21.87910 34820 ft 433 kts 254°
2026-05-08 16:23 38.38042 -21.94977 34821 ft 432 kts 254°
2026-05-08 16:24 38.35718 -22.02035 34823 ft 431 kts 254°
2026-05-08 16:24 38.33391 -22.09081 34829 ft 431 kts 254°
2026-05-08 16:25 38.31062 -22.16117 34826 ft 431 kts 254°
2026-05-08 16:25 38.28732 -22.23147 34837 ft 431 kts 254°
2026-05-08 16:26 38.26397 -22.30168 34838 ft 431 kts 254°
2026-05-08 16:26 38.24059 -22.37182 34844 ft 431 kts 254°
2026-05-08 16:27 38.21717 -22.44194 34845 ft 431 kts 254°
2026-05-08 16:27 38.19364 -22.51220 34843 ft 431 kts 254°
2026-05-08 16:28 38.17018 -22.58208 34845 ft 430 kts 254°
2026-05-08 16:28 38.14667 -22.65191 34850 ft 429 kts 254°
2026-05-08 16:29 38.12312 -22.72165 34864 ft 429 kts 254°
2026-05-08 16:29 38.09967 -22.79089 34842 ft 429 kts 255°
2026-05-08 16:30 38.07612 -22.86049 34862 ft 429 kts 255°
2026-05-08 16:30 38.05252 -22.93000 34871 ft 428 kts 254°
2026-05-08 16:31 38.02888 -22.99941 34880 ft 428 kts 254°
2026-05-08 16:31 38.00527 -23.06852 34665 ft 423 kts 254°
2026-05-08 16:32 37.99351 -23.10288 34393 ft 426 kts 255°
2026-05-08 16:32 37.98176 -23.13723 34120 ft 424 kts 255°
2026-05-08 16:32 37.97001 -23.17144 33875 ft 422 kts 255°
2026-05-08 16:32 37.95847 -23.20545 33594 ft 418 kts 257°
2026-05-08 16:33 37.94982 -23.24002 33324 ft 406 kts 266°
2026-05-08 16:33 37.94629 -23.27498 33053 ft 396 kts 274°
2026-05-08 16:33 37.94525 -23.30961 32785 ft 392 kts 276°
2026-05-08 16:33 37.94452 -23.34407 32518 ft 391 kts 276°
2026-05-08 16:34 37.94365 -23.37845 32257 ft 390 kts 275°
2026-05-08 16:34 37.94270 -23.41265 31995 ft 388 kts 275°
2026-05-08 16:34 37.94167 -23.44675 31700 ft 385 kts 275°
2026-05-08 16:34 37.94061 -23.48048 31444 ft 382 kts 275°
2026-05-08 16:35 37.93953 -23.51404 31153 ft 380 kts 275°
2026-05-08 16:35 37.93845 -23.54732 30757 ft 376 kts 275°
2026-05-08 16:35 37.93737 -23.58019 30326 ft 372 kts 275°
2026-05-08 16:35 37.93629 -23.61270 29887 ft 368 kts 275°
2026-05-08 16:36 37.93522 -23.64495 29379 ft 365 kts 275°
2026-05-08 16:36 37.93416 -23.67688 28883 ft 362 kts 275°
2026-05-08 16:36 37.93309 -23.70856 28424 ft 358 kts 275°
2026-05-08 16:36 37.93202 -23.73983 27992 ft 354 kts 275°
2026-05-08 16:37 37.93097 -23.77093 27563 ft 355 kts 275°
2026-05-08 16:37 37.92990 -23.80198 27136 ft 351 kts 275°
2026-05-08 16:37 37.92882 -23.83267 26700 ft 348 kts 275°
2026-05-08 16:37 37.92775 -23.86314 26268 ft 345 kts 275°
2026-05-08 16:38 37.92668 -23.89334 25843 ft 342 kts 275°
2026-05-08 16:38 37.92561 -23.92329 25433 ft 339 kts 275°
2026-05-08 16:38 37.92455 -23.95297 25034 ft 336 kts 275°
2026-05-08 16:38 37.92349 -23.98247 24613 ft 334 kts 275°
2026-05-08 16:39 37.92243 -24.01180 24188 ft 333 kts 275°
2026-05-08 16:39 37.92136 -24.04104 23770 ft 332 kts 275°
2026-05-08 16:39 37.92028 -24.07015 23303 ft 330 kts 275°
2026-05-08 16:39 37.91920 -24.09912 22872 ft 328 kts 275°
2026-05-08 16:40 37.91813 -24.12784 22431 ft 325 kts 275°
2026-05-08 16:40 37.91706 -24.15637 22007 ft 323 kts 275°
2026-05-08 16:40 37.91599 -24.18470 21583 ft 321 kts 274°
2026-05-08 16:40 37.91492 -24.21281 21174 ft 319 kts 274°
2026-05-08 16:41 37.91384 -24.24078 20765 ft 317 kts 274°
2026-05-08 16:41 37.91277 -24.26855 20374 ft 315 kts 274°
2026-05-08 16:41 37.91169 -24.29617 19999 ft 313 kts 274°
2026-05-08 16:42 37.90955 -24.35091 19271 ft 310 kts 274°
2026-05-08 16:42 37.90848 -24.37815 18905 ft 309 kts 274°
2026-05-08 16:42 37.90740 -24.40532 18529 ft 309 kts 274°
2026-05-08 16:42 37.90632 -24.43244 18189 ft 308 kts 274°
2026-05-08 16:43 37.90525 -24.45945 17807 ft 307 kts 274°
2026-05-08 16:43 37.90417 -24.48640 17422 ft 306 kts 274°
2026-05-08 16:43 37.90307 -24.51330 17064 ft 306 kts 274°
2026-05-08 16:43 37.90197 -24.54016 16692 ft 305 kts 274°
2026-05-08 16:44 37.90087 -24.56696 16344 ft 304 kts 274°
2026-05-08 16:44 37.89977 -24.59367 16004 ft 303 kts 274°
2026-05-08 16:44 37.89866 -24.62027 15664 ft 302 kts 273°
2026-05-08 16:44 37.89755 -24.64675 15332 ft 301 kts 273°
2026-05-08 16:45 37.89643 -24.67320 15003 ft 300 kts 273°
2026-05-08 16:45 37.89533 -24.69953 14669 ft 299 kts 273°
2026-05-08 16:45 37.89421 -24.72583 14319 ft 299 kts 273°
2026-05-08 16:45 37.89310 -24.75202 13995 ft 298 kts 273°
2026-05-08 16:46 37.89189 -24.77820 13653 ft 298 kts 271°
2026-05-08 16:46 37.88734 -24.80403 13293 ft 308 kts 254°
2026-05-08 16:46 37.87542 -24.82700 12938 ft 321 kts 232°
2026-05-08 16:46 37.85784 -24.84484 12611 ft 326 kts 222°
2026-05-08 16:47 37.83919 -24.86114 12276 ft 326 kts 221°
2026-05-08 16:47 37.82061 -24.87748 11932 ft 325 kts 221°
2026-05-08 16:47 37.80222 -24.89395 11593 ft 324 kts 222°
2026-05-08 16:47 37.78393 -24.91054 11253 ft 324 kts 222°
2026-05-08 16:48 37.76564 -24.92716 10910 ft 323 kts 222°
2026-05-08 16:48 37.74743 -24.94373 10602 ft 322 kts 221°
2026-05-08 16:48 37.72960 -24.95999 10377 ft 318 kts 222°
2026-05-08 16:48 37.71174 -24.97625 10187 ft 308 kts 222°
2026-05-08 16:49 37.69484 -24.99163 9987 ft 301 kts 222°
2026-05-08 16:49 37.67765 -25.00733 9674 ft 300 kts 222°
2026-05-08 16:49 37.66098 -25.02260 9339 ft 300 kts 221°
2026-05-08 16:49 37.64412 -25.03801 8990 ft 298 kts 221°
2026-05-08 16:50 37.62747 -25.05322 8651 ft 294 kts 221°
2026-05-08 16:50 37.61094 -25.06828 8343 ft 293 kts 221°
2026-05-08 16:50 37.59447 -25.08329 8031 ft 292 kts 221°
2026-05-08 16:50 37.57807 -25.09833 7730 ft 290 kts 224°
2026-05-08 16:51 37.56470 -25.11654 7419 ft 278 kts 246°
2026-05-08 16:51 37.55913 -25.13894 7110 ft 263 kts 272°
2026-05-08 16:51 37.56164 -25.16108 6808 ft 252 kts 295°
2026-05-08 16:51 37.56976 -25.18031 6520 ft 247 kts 306°
2026-05-08 16:52 37.57906 -25.19852 6198 ft 247 kts 306°
2026-05-08 16:52 37.58808 -25.21688 5907 ft 247 kts 302°
2026-05-08 16:52 37.59308 -25.23008 5702 ft 246 kts 297°
2026-05-08 16:52 37.59955 -25.24969 5486 ft 237 kts 296°
2026-05-08 16:53 37.61080 -25.28566 5452 ft 202 kts 297°
2026-05-08 16:53 37.61592 -25.30182 5466 ft 197 kts 297°
2026-05-08 16:53 37.62094 -25.31753 5473 ft 187 kts 297°
2026-05-08 16:54 37.62579 -25.33267 5309 ft 185 kts 297°
2026-05-08 16:54 37.63042 -25.34727 5130 ft 174 kts 298°
2026-05-08 16:54 37.63491 -25.36130 4837 ft 172 kts 298°
2026-05-08 16:54 37.63935 -25.37507 4578 ft 166 kts 301°
2026-05-08 16:55 37.64400 -25.38839 4325 ft 167 kts 302°
2026-05-08 16:55 37.64869 -25.40196 4080 ft 169 kts 299°
2026-05-08 16:55 37.65310 -25.41565 3850 ft 168 kts 299°
2026-05-08 16:55 37.65742 -25.42930 3625 ft 167 kts 299°
2026-05-08 16:56 37.66164 -25.44271 3578 ft 166 kts 298°
2026-05-08 16:56 37.66591 -25.45623 3580 ft 165 kts 300°
2026-05-08 16:56 37.67012 -25.46959 3582 ft 164 kts 300°
2026-05-08 16:56 37.67438 -25.48306 3538 ft 167 kts 300°
2026-05-08 16:57 37.67866 -25.49668 3387 ft 167 kts 299°
2026-05-08 16:57 37.68291 -25.51019 3188 ft 164 kts 300°
2026-05-08 16:57 37.68706 -25.52333 2974 ft 160 kts 300°
2026-05-08 16:57 37.69118 -25.53638 2762 ft 160 kts 301°
2026-05-08 16:58 37.69526 -25.54937 2538 ft 159 kts 300°
2026-05-08 16:58 37.69915 -25.56178 2370 ft 142 kts 300°
2026-05-08 16:58 37.70260 -25.57271 2156 ft 130 kts 301°
2026-05-08 16:58 37.70590 -25.58317 1969 ft 126 kts 303°
2026-05-08 16:59 37.70916 -25.59349 1794 ft 128 kts 301°
2026-05-08 16:59 37.71243 -25.60388 1632 ft 127 kts 301°
2026-05-08 16:59 37.71571 -25.61431 1444 ft 129 kts 301°
2026-05-08 16:59 37.71901 -25.62479 1271 ft 128 kts 302°
2026-05-08 17:00 37.72228 -25.63527 1057 ft 128 kts 303°
2026-05-08 17:00 37.72561 -25.64567 889 ft 128 kts 301°
2026-05-08 17:00 37.72899 -25.65624 735 ft 130 kts 298°
2026-05-08 17:00 37.73224 -25.66676 564 ft 130 kts 297°
2026-05-08 17:01 37.73550 -25.67718 398 ft 124 kts 296°
2026-05-08 17:01 37.73870 -25.68736 245 ft 124 kts 298°
2026-05-08 17:01 37.74167 -25.69657 235 ft 87 kts 292°
2026-05-08 17:01 37.74318 -25.70145 248 ft 50 kts 293°
2026-05-08 17:02 37.74449 -25.70551 266 ft 50 kts 290°
2026-05-08 17:02 37.74546 -25.70859 275 ft 22 kts 295°
2026-05-08 17:02 37.74596 -25.70996 277 ft 10 kts 302°
2026-05-08 17:02 37.74662 -25.71024 277 ft 11 kts
2026-05-08 17:03 37.74740 -25.71023 277 ft 8 kts
2026-05-08 17:03 37.74788 -25.71063 277 ft 4 kts 292°
2026-05-08 17:03 37.74812 -25.71080 277 ft 5 kts
2026-05-08 17:03 37.74848 -25.71063 277 ft 5 kts 22°
2026-05-08 17:04 37.74858 -25.71058 277 ft 0 kts 22°